When you browse on this site, cookies collect data to enhance your experience and personalize the content and advertising you see.
Visit our Privacy Policy to learn more. By continuing to use the site, you agree to this use of cookies and data.

Hourly Weather Bregenz

Today, 3 July, Friday

Time Temperature Precipitation Wind Pressure Humidity
00:00 +11°C° 1.6 mm 1 mps 647 mmHg 95%
01:00 +10°C° 0 mm 1 mps 647 mmHg 96%
02:00 +10°C° 0.5 mm 1 mps 647 mmHg 96%
03:00 +10°C° 0.5 mm 1 mps 647 mmHg 96%
04:00 +9°C° 0.5 mm 1 mps 646 mmHg 96%
05:00 +10°C° 0.3 mm 1 mps 647 mmHg 96%
06:00 +10°C° 0.3 mm 1 mps 647 mmHg 96%
07:00 +10°C° 0.3 mm 1 mps 647 mmHg 96%
08:00 +10°C° 0.4 mm 1 mps 648 mmHg 95%
09:00 +10°C° 0.4 mm 1 mps 648 mmHg 94%
10:00 +11°C° 0.4 mm 1 mps 648 mmHg 92%
11:00 +12°C° 0.1 mm 1 mps 648 mmHg 85%
12:00 +13°C° 0.1 mm 1 mps 649 mmHg 78%
13:00 +15°C° 0.1 mm 1 mps 649 mmHg 72%
14:00 +15°C° 0.1 mm 1 mps 649 mmHg 71%
15:00 +15°C° 0.1 mm 1 mps 649 mmHg 70%
16:00 +15°C° 0.1 mm 1 mps 649 mmHg 69%
17:00 +15°C° 0.2 mm 1 mps 649 mmHg 74%
18:00 +14°C° 0.2 mm 1 mps 649 mmHg 80%
19:00 +13°C° 0.2 mm 1 mps 649 mmHg 85%
20:00 +12°C° 0.1 mm 1 mps 649 mmHg 88%
21:00 +11°C° 0.1 mm 1 mps 649 mmHg 90%
22:00 +9°C° 0.1 mm 0 mps 649 mmHg 93%
23:00 +8°C° 0 mm 0 mps 649 mmHg 93%

Tomorrow, 4 July, Saturday

Time Temperature Precipitation Wind Pressure Humidity
00:00 +8°C° 0 mm 0 mps 649 mmHg 94%
01:00 +8°C° 0 mm 0 mps 649 mmHg 94%
02:00 +7°C° 0 mm 0 mps 648 mmHg 95%
03:00 +7°C° 0 mm 0 mps 648 mmHg 95%
04:00 +7°C° 0 mm 0 mps 648 mmHg 95%
05:00 +8°C° 0 mm 0 mps 649 mmHg 93%
06:00 +9°C° 0 mm 0 mps 649 mmHg 92%
07:00 +10°C° 0 mm 0 mps 649 mmHg 90%
08:00 +12°C° 0 mm 0 mps 650 mmHg 83%
09:00 +14°C° 0 mm 1 mps 650 mmHg 77%
10:00 +16°C° 0 mm 1 mps 651 mmHg 70%
11:00 +16°C° 0 mm 1 mps 651 mmHg 67%
12:00 +18°C° 0 mm 1 mps 651 mmHg 65%
13:00 +19°C° 0 mm 1 mps 651 mmHg 62%
14:00 +19°C° 0 mm 1 mps 651 mmHg 62%
15:00 +19°C° 0 mm 1 mps 651 mmHg 61%
16:00 +18°C° 0 mm 2 mps 651 mmHg 61%
17:00 +17°C° 0 mm 2 mps 651 mmHg 66%
18:00 +16°C° 0 mm 1 mps 650 mmHg 71%
19:00 +16°C° 0 mm 1 mps 650 mmHg 76%
20:00 +14°C° 0 mm 1 mps 650 mmHg 80%
21:00 +12°C° 0 mm 1 mps 650 mmHg 84%
22:00 +11°C° 0 mm 1 mps 650 mmHg 88%
23:00 +10°C° 0 mm 1 mps 650 mmHg 89%

Day after tomorrow, 5 July, Sunday

Time Temperature Precipitation Wind Pressure Humidity
00:00 +10°C° 0 mm 1 mps 650 mmHg 90%
01:00 +9°C° 0 mm 1 mps 650 mmHg 91%
02:00 +9°C° 0 mm 1 mps 649 mmHg 91%
03:00 +9°C° 0 mm 1 mps 649 mmHg 91%
04:00 +9°C° 0 mm 1 mps 649 mmHg 91%
05:00 +10°C° 0 mm 1 mps 649 mmHg 87%
06:00 +12°C° 0 mm 1 mps 650 mmHg 82%
07:00 +14°C° 0 mm 1 mps 650 mmHg 78%
08:00 +15°C° 0 mm 1 mps 651 mmHg 71%
09:00 +18°C° 0 mm 1 mps 651 mmHg 63%
10:00 +20°C° 0 mm 1 mps 652 mmHg 56%
11:00 +20°C° 0 mm 2 mps 652 mmHg 54%
12:00 +20°C° 0 mm 2 mps 651 mmHg 53%
13:00 +21°C° 0 mm 2 mps 651 mmHg 51%
14:00 +21°C° 0 mm 2 mps 651 mmHg 53%
15:00 +21°C° 0 mm 2 mps 651 mmHg 55%
16:00 +21°C° 0 mm 3 mps 651 mmHg 56%
17:00 +20°C° 0 mm 2 mps 650 mmHg 64%
18:00 +19°C° 0 mm 2 mps 650 mmHg 72%
19:00 +18°C° 0 mm 2 mps 650 mmHg 80%
20:00 +16°C° 0 mm 1 mps 649 mmHg 85%
21:00 +14°C° 0 mm 1 mps 649 mmHg 89%
22:00 +13°C° 0 mm 1 mps 648 mmHg 94%
23:00 +13°C° 0 mm 1 mps 648 mmHg 94%

6 July, Monday

Time Temperature Precipitation Wind Pressure Humidity
00:00 +13°C° 0 mm 1 mps 648 mmHg 94%
01:00 +13°C° 0 mm 1 mps 648 mmHg 94%
02:00 +13°C° 0 mm 1 mps 648 mmHg 94%
03:00 +13°C° 0 mm 1 mps 648 mmHg 94%
04:00 +12°C° 0 mm 1 mps 647 mmHg 94%
05:00 +13°C° 0.1 mm 1 mps 647 mmHg 93%
06:00 +14°C° 0.1 mm 1 mps 647 mmHg 93%
07:00 +14°C° 0.1 mm 1 mps 647 mmHg 92%
08:00 +15°C° 0.2 mm 2 mps 648 mmHg 89%
09:00 +15°C° 0.2 mm 2 mps 648 mmHg 86%
10:00 +16°C° 0.2 mm 3 mps 648 mmHg 83%
11:00 +16°C° 0.2 mm 3 mps 648 mmHg 81%
12:00 +16°C° 0.2 mm 3 mps 648 mmHg 78%
13:00 +17°C° 0.2 mm 3 mps 648 mmHg 76%
14:00 +16°C° 0.2 mm 3 mps 648 mmHg 77%
15:00 +14°C° 0.2 mm 3 mps 648 mmHg 79%
16:00 +13°C° 0.2 mm 3 mps 647 mmHg 81%
17:00 +13°C° 0 mm 2 mps 648 mmHg 81%
18:00 +13°C° 0 mm 2 mps 648 mmHg 81%
19:00 +12°C° 0 mm 2 mps 648 mmHg 81%
20:00 +11°C° 0 mm 1 mps 648 mmHg 81%
21:00 +10°C° 0 mm 1 mps 648 mmHg 81%
22:00 +9°C° 0 mm 1 mps 649 mmHg 81%
23:00 +8°C° 0 mm 1 mps 648 mmHg 83%

7 July, Tuesday

Time Temperature Precipitation Wind Pressure Humidity
00:00 +7°C° 0 mm 1 mps 648 mmHg 85%
01:00 +7°C° 0 mm 1 mps 648 mmHg 87%
02:00 +5°C° 0 mm 0 mps 648 mmHg 89%
03:00 +5°C° 0 mm 0 mps 647 mmHg 90%
04:00 +5°C° 0 mm 0 mps 647 mmHg 92%
05:00 +6°C° 0 mm 0 mps 647 mmHg 88%
06:00 +8°C° 0 mm 1 mps 648 mmHg 85%
07:00 +9°C° 0 mm 1 mps 648 mmHg 82%
08:00 +10°C° 0 mm 1 mps 648 mmHg 74%
09:00 +12°C° 0 mm 1 mps 649 mmHg 66%
10:00 +14°C° 0 mm 2 mps 649 mmHg 58%
11:00 +15°C° 0 mm 2 mps 649 mmHg 55%
12:00 +16°C° 0 mm 2 mps 649 mmHg 52%
13:00 +17°C° 0 mm 3 mps 649 mmHg 48%
14:00 +17°C° 0 mm 3 mps 649 mmHg 51%
15:00 +17°C° 0 mm 3 mps 649 mmHg 53%
16:00 +17°C° 0 mm 3 mps 649 mmHg 55%
17:00 +16°C° 0 mm 2 mps 649 mmHg 62%
18:00 +14°C° 0 mm 2 mps 649 mmHg 68%
19:00 +13°C° 0 mm 2 mps 649 mmHg 75%
20:00 +12°C° 0 mm 1 mps 649 mmHg 80%
21:00 +10°C° 0 mm 1 mps 649 mmHg 85%
22:00 +8°C° 0 mm 1 mps 648 mmHg 91%
23:00 +8°C° 0 mm 1 mps 648 mmHg 91%

8 July, Wednesday

Time Temperature Precipitation Wind Pressure Humidity
00:00 +7°C° 0 mm 1 mps 648 mmHg 92%
01:00 +7°C° 0 mm 1 mps 648 mmHg 93%
02:00 +7°C° 0 mm 1 mps 648 mmHg 93%
03:00 +5°C° 0 mm 0 mps 648 mmHg 94%
04:00 +5°C° 0 mm 0 mps 648 mmHg 94%
05:00 +7°C° 0 mm 0 mps 648 mmHg 90%
06:00 +8°C° 0 mm 0 mps 649 mmHg 87%
07:00 +9°C° 0 mm 0 mps 649 mmHg 83%
08:00 +12°C° 0 mm 1 mps 650 mmHg 75%
09:00 +14°C° 0 mm 1 mps 650 mmHg 67%
10:00 +16°C° 0 mm 2 mps 651 mmHg 59%
11:00 +16°C° 0 mm 2 mps 651 mmHg 56%
12:00 +17°C° 0 mm 3 mps 651 mmHg 54%
13:00 +18°C° 0 mm 3 mps 651 mmHg 51%
14:00 +18°C° 0 mm 3 mps 651 mmHg 53%
15:00 +18°C° 0 mm 3 mps 651 mmHg 55%
16:00 +18°C° 0 mm 3 mps 651 mmHg 58%
17:00 +17°C° 0 mm 3 mps 651 mmHg 64%
18:00 +16°C° 0 mm 2 mps 651 mmHg 70%
19:00 +15°C° 0 mm 2 mps 651 mmHg 77%
20:00 +13°C° 0 mm 2 mps 650 mmHg 82%
21:00 +11°C° 0 mm 1 mps 650 mmHg 88%
22:00 +9°C° 0 mm 1 mps 650 mmHg 93%
23:00 +9°C° 0 mm 1 mps 650 mmHg 93%
Show more